Time,TemperatureF,DewpointF,PressureIn,WindDirection,WindDirectionDegrees,WindSpeedMPH,WindSpeedGustMPH,Humidity,HourlyPrecipIn,Conditions,Clouds,dailyrainin,SoftwareType,DateUTC
2013-03-06 00:00:00,53.7,25.3,30.00,ENE,78,0.0,0.0,33,0.00,,---,0.00,VWS V14.01,2013-03-06 07:00:00,
2013-03-06 00:05:00,53.0,25.4,30.00,East,79,0.0,0.0,34,0.00,,---,0.00,VWS V14.01,2013-03-06 07:05:00,
2013-03-06 00:10:00,52.2,25.4,30.00,East,79,0.0,1.0,35,0.00,,---,0.00,VWS V14.01,2013-03-06 07:10:00,
2013-03-06 00:15:00,52.7,25.1,30.00,East,79,0.0,0.0,34,0.00,,---,0.00,VWS V14.01,2013-03-06 07:15:00,
2013-03-06 00:20:00,53.0,25.4,30.00,East,79,0.0,0.0,34,0.00,,---,0.00,VWS V14.01,2013-03-06 07:20:00,
2013-03-06 00:25:00,52.2,24.7,30.00,East,83,0.0,0.0,34,0.00,,---,0.00,VWS V14.01,2013-03-06 07:25:00,
2013-03-06 00:30:00,51.5,25.5,30.00,East,85,0.0,0.0,36,0.00,,---,0.00,VWS V14.01,2013-03-06 07:30:00,
2013-03-06 00:35:00,51.1,25.8,30.00,East,84,0.0,0.0,37,0.00,,---,0.00,VWS V14.01,2013-03-06 07:35:00,
2013-03-06 00:40:00,50.9,25.6,30.00,East,84,0.0,0.0,37,0.00,,---,0.00,VWS V14.01,2013-03-06 07:40:00,
2013-03-06 00:44:00,50.8,25.5,30.00,East,84,0.0,0.0,37,0.00,,---,0.00,VWS V14.01,2013-03-06 07:44:00,
2013-03-06 00:45:00,50.8,25.5,30.00,East,84,0.0,0.0,37,0.00,,---,0.00,VWS V14.01,2013-03-06 07:45:00,
2013-03-06 00:49:00,50.5,25.2,30.00,East,84,0.0,0.0,37,0.00,,---,0.00,VWS V14.01,2013-03-06 07:49:00,
2013-03-06 00:50:00,50.6,25.3,30.00,East,84,0.0,0.0,37,0.00,,---,0.00,VWS V14.01,2013-03-06 07:50:00,
2013-03-06 00:54:00,50.3,25.0,30.00,East,84,0.0,0.0,37,0.00,,---,0.00,VWS V14.01,2013-03-06 07:54:00,
2013-03-06 00:55:00,50.4,25.1,30.00,East,84,0.0,0.0,37,0.00,,---,0.00,VWS V14.01,2013-03-06 07:55:00,
2013-03-06 00:59:00,49.9,25.3,29.99,East,86,0.0,2.0,38,0.00,,---,0.00,VWS V14.01,2013-03-06 07:59:00,
2013-03-06 01:00:00,50.1,25.5,30.00,East,84,2.0,2.0,38,0.00,,---,0.00,VWS V14.01,2013-03-06 08:00:00,
2013-03-06 01:04:00,49.5,25.0,29.99,East,85,0.0,0.0,38,0.00,,---,0.00,VWS V14.01,2013-03-06 08:04:00,
2013-03-06 01:05:00,49.6,25.0,29.99,East,84,0.0,2.0,38,0.00,,---,0.00,VWS V14.01,2013-03-06 08:05:00,
2013-03-06 01:09:00,49.0,25.1,29.99,East,85,0.0,0.0,39,0.00,,---,0.00,VWS V14.01,2013-03-06 08:09:00,
2013-03-06 01:10:00,49.2,25.3,29.99,East,84,0.0,0.0,39,0.00,,---,0.00,VWS V14.01,2013-03-06 08:10:00,
2013-03-06 01:14:00,48.5,25.3,29.99,East,85,0.0,0.0,40,0.00,,---,0.00,VWS V14.01,2013-03-06 08:14:00,
2013-03-06 01:15:00,48.6,25.4,29.99,East,85,0.0,0.0,40,0.00,,---,0.00,VWS V14.01,2013-03-06 08:15:00,
2013-03-06 01:19:00,47.9,25.4,29.99,East,84,0.0,0.0,41,0.00,,---,0.00,VWS V14.01,2013-03-06 08:19:00,
2013-03-06 01:20:00,48.1,25.5,29.99,East,84,0.0,0.0,41,0.00,,---,0.00,VWS V14.01,2013-03-06 08:20:00,
2013-03-06 01:24:00,47.5,25.0,29.99,East,86,1.0,3.0,41,0.00,,---,0.00,VWS V14.01,2013-03-06 08:24:00,
2013-03-06 01:25:00,47.6,25.1,29.99,East,86,0.0,3.0,41,0.00,,---,0.00,VWS V14.01,2013-03-06 08:25:00,
2013-03-06 01:29:00,47.5,25.0,29.98,East,86,0.0,0.0,41,0.00,,---,0.00,VWS V14.01,2013-03-06 08:29:00,
2013-03-06 01:30:00,47.4,24.9,29.98,East,86,0.0,3.0,41,0.00,,---,0.00,VWS V14.01,2013-03-06 08:30:00,
2013-03-06 01:34:00,47.9,25.4,29.98,East,84,0.0,0.0,41,0.00,,---,0.00,VWS V14.01,2013-03-06 08:34:00,
2013-03-06 01:35:00,47.8,25.3,29.98,East,84,0.0,3.0,41,0.00,,---,0.00,VWS V14.01,2013-03-06 08:35:00,
2013-03-06 01:39:00,48.7,25.5,29.98,East,82,0.0,1.0,40,0.00,,---,0.00,VWS V14.01,2013-03-06 08:39:00,
2013-03-06 01:40:00,48.5,25.3,29.97,East,82,0.0,4.0,40,0.00,,---,0.00,VWS V14.01,2013-03-06 08:40:00,
2013-03-06 01:44:00,49.0,25.1,29.97,East,84,0.0,0.0,39,0.00,,---,0.00,VWS V14.01,2013-03-06 08:44:00,
2013-03-06 01:45:00,49.1,25.2,29.97,East,83,0.0,1.0,39,0.00,,---,0.00,VWS V14.01,2013-03-06 08:45:00,
2013-03-06 01:49:00,48.9,25.0,29.97,East,88,0.0,0.0,39,0.00,,---,0.00,VWS V14.01,2013-03-06 08:49:00,
2013-03-06 01:50:00,48.8,25.0,29.97,East,88,0.0,0.0,39,0.00,,---,0.00,VWS V14.01,2013-03-06 08:50:00,
2013-03-06 01:54:00,49.2,25.3,29.98,East,88,0.0,0.0,39,0.00,,---,0.00,VWS V14.01,2013-03-06 08:54:00,
2013-03-06 01:55:00,49.1,25.2,29.98,East,88,0.0,0.0,39,0.00,,---,0.00,VWS V14.01,2013-03-06 08:55:00,
2013-03-06 01:59:00,49.2,25.3,29.97,East,88,0.0,0.0,39,0.00,,---,0.00,VWS V14.01,2013-03-06 08:59:00,
2013-03-06 02:00:00,49.2,25.3,29.98,East,87,0.0,0.0,39,0.00,,---,0.00,VWS V14.01,2013-03-06 09:00:00,
2013-03-06 02:04:00,48.5,25.3,29.97,East,87,0.0,2.0,40,0.00,,---,0.00,VWS V14.01,2013-03-06 09:04:00,
2013-03-06 02:05:00,48.7,25.5,29.97,East,87,0.0,1.0,40,0.00,,---,0.00,VWS V14.01,2013-03-06 09:05:00,
2013-03-06 02:09:00,48.1,25.5,29.96,East,87,0.0,0.0,41,0.00,,---,0.00,VWS V14.01,2013-03-06 09:09:00,
2013-03-06 02:10:00,48.2,25.6,29.97,East,87,0.0,2.0,41,0.00,,---,0.00,VWS V14.01,2013-03-06 09:10:00,
2013-03-06 02:14:00,48.0,25.4,29.97,East,87,0.0,0.0,41,0.00,,---,0.00,VWS V14.01,2013-03-06 09:14:00,
2013-03-06 02:15:00,48.0,25.4,29.97,East,87,0.0,0.0,41,0.00,,---,0.00,VWS V14.01,2013-03-06 09:15:00,
2013-03-06 02:19:00,48.1,25.5,29.97,East,85,0.0,2.0,41,0.00,,---,0.00,VWS V14.01,2013-03-06 09:19:00,
2013-03-06 02:20:00,48.1,25.5,29.97,East,87,0.0,3.0,41,0.00,,---,0.00,VWS V14.01,2013-03-06 09:20:00,
2013-03-06 02:24:00,47.9,25.4,29.96,East,84,0.0,0.0,41,0.00,,---,0.00,VWS V14.01,2013-03-06 09:24:00,
2013-03-06 02:25:00,48.0,25.4,29.97,East,84,0.0,2.0,41,0.00,,---,0.00,VWS V14.01,2013-03-06 09:25:00,
2013-03-06 02:29:00,48.0,25.4,29.97,East,86,1.0,3.0,41,0.00,,---,0.00,VWS V14.01,2013-03-06 09:29:00,
2013-03-06 02:30:00,48.0,25.4,29.97,East,85,0.0,1.0,41,0.00,,---,0.00,VWS V14.01,2013-03-06 09:30:00,
2013-03-06 02:34:00,48.2,25.6,29.96,East,84,0.0,0.0,41,0.00,,---,0.00,VWS V14.01,2013-03-06 09:34:00,
2013-03-06 02:35:00,48.2,25.6,29.96,East,84,0.0,3.0,41,0.00,,---,0.00,VWS V14.01,2013-03-06 09:35:00,
2013-03-06 02:39:00,48.3,25.1,29.95,East,85,0.0,3.0,40,0.00,,---,0.00,VWS V14.01,2013-03-06 09:39:00,
2013-03-06 02:40:00,48.3,25.1,29.96,East,84,0.0,2.0,40,0.00,,---,0.00,VWS V14.01,2013-03-06 09:40:00,
2013-03-06 02:44:00,48.4,25.2,29.95,East,86,2.0,4.0,40,0.00,,---,0.00,VWS V14.01,2013-03-06 09:44:00,
2013-03-06 02:45:00,48.5,25.3,29.95,East,86,0.0,4.0,40,0.00,,---,0.00,VWS V14.01,2013-03-06 09:45:00,
2013-03-06 02:49:00,47.8,25.3,29.95,East,86,0.0,0.0,41,0.00,,---,0.00,VWS V14.01,2013-03-06 09:49:00,
2013-03-06 02:50:00,48.0,25.4,29.95,East,86,0.0,4.0,41,0.00,,---,0.00,VWS V14.01,2013-03-06 09:50:00,
2013-03-06 02:54:00,47.2,25.3,29.95,East,86,0.0,0.0,42,0.00,,---,0.00,VWS V14.01,2013-03-06 09:54:00,
2013-03-06 02:55:00,47.3,25.4,29.95,East,86,0.0,0.0,42,0.00,,---,0.00,VWS V14.01,2013-03-06 09:55:00,
2013-03-06 02:59:00,46.5,24.7,29.95,East,85,0.0,0.0,42,0.00,,---,0.00,VWS V14.01,2013-03-06 09:59:00,
2013-03-06 03:00:00,46.7,24.8,29.95,East,84,0.0,1.0,42,0.00,,---,0.00,VWS V14.01,2013-03-06 10:00:00,
2013-03-06 03:04:00,46.1,24.9,29.95,East,85,0.0,0.0,43,0.00,,---,0.00,VWS V14.01,2013-03-06 10:04:00,
2013-03-06 03:05:00,46.2,25.0,29.95,East,85,0.0,0.0,43,0.00,,---,0.00,VWS V14.01,2013-03-06 10:05:00,
2013-03-06 03:09:00,45.9,24.7,29.95,East,84,0.0,0.0,43,0.00,,---,0.00,VWS V14.01,2013-03-06 10:09:00,
2013-03-06 03:10:00,45.9,24.7,29.95,East,85,0.0,0.0,43,0.00,,---,0.00,VWS V14.01,2013-03-06 10:10:00,
2013-03-06 03:14:00,45.6,25.0,29.95,East,85,3.0,3.0,44,0.00,,---,0.00,VWS V14.01,2013-03-06 10:14:00,
2013-03-06 03:15:00,45.7,24.5,29.95,East,84,0.0,0.0,43,0.00,,---,0.00,VWS V14.01,2013-03-06 10:15:00,
2013-03-06 03:19:00,45.4,24.2,29.95,East,86,0.0,0.0,43,0.00,,---,0.00,VWS V14.01,2013-03-06 10:19:00,
2013-03-06 03:20:00,45.4,24.8,29.95,East,86,0.0,3.0,44,0.00,,---,0.00,VWS V14.01,2013-03-06 10:20:00,
2013-03-06 03:24:00,45.5,24.3,29.96,East,86,0.0,0.0,43,0.00,,---,0.00,VWS V14.01,2013-03-06 10:24:00,
2013-03-06 03:25:00,45.5,24.3,29.96,East,86,0.0,0.0,43,0.00,,---,0.00,VWS V14.01,2013-03-06 10:25:00,
2013-03-06 03:29:00,45.3,24.1,29.96,East,86,0.0,0.0,43,0.00,,---,0.00,VWS V14.01,2013-03-06 10:29:00,
2013-03-06 03:30:00,45.4,24.2,29.96,East,86,0.0,0.0,43,0.00,,---,0.00,VWS V14.01,2013-03-06 10:30:00,
2013-03-06 03:34:00,45.2,24.6,29.96,East,86,0.0,0.0,44,0.00,,---,0.00,VWS V14.01,2013-03-06 10:34:00,
2013-03-06 03:35:00,45.2,24.6,29.95,East,86,0.0,0.0,44,0.00,,---,0.00,VWS V14.01,2013-03-06 10:35:00,
2013-03-06 03:39:00,45.2,24.6,29.96,East,86,0.0,0.0,44,0.00,,---,0.00,VWS V14.01,2013-03-06 10:39:00,
2013-03-06 03:40:00,45.2,24.6,29.95,East,86,0.0,0.0,44,0.00,,---,0.00,VWS V14.01,2013-03-06 10:40:00,
2013-03-06 03:44:00,45.3,24.7,29.95,East,90,0.0,3.0,44,0.00,,---,0.00,VWS V14.01,2013-03-06 10:44:00,
2013-03-06 03:45:00,45.3,24.7,29.95,East,88,0.0,1.0,44,0.00,,---,0.00,VWS V14.01,2013-03-06 10:45:00,
2013-03-06 03:49:00,46.0,24.8,29.95,East,92,0.0,0.0,43,0.00,,---,0.00,VWS V14.01,2013-03-06 10:49:00,
2013-03-06 03:50:00,45.8,24.6,29.95,East,92,0.0,4.0,43,0.00,,---,0.00,VWS V14.01,2013-03-06 10:50:00,
2013-03-06 03:54:00,46.7,24.8,29.96,East,92,0.0,0.0,42,0.00,,---,0.00,VWS V14.01,2013-03-06 10:54:00,
2013-03-06 03:55:00,46.5,25.2,29.96,East,92,0.0,0.0,43,0.00,,---,0.00,VWS V14.01,2013-03-06 10:55:00,
2013-03-06 03:59:00,47.3,25.4,29.95,East,92,0.0,0.0,42,0.00,,---,0.00,VWS V14.01,2013-03-06 10:59:00,
2013-03-06 04:00:00,47.2,25.3,29.95,East,92,0.0,1.0,42,0.00,,---,0.00,VWS V14.01,2013-03-06 11:00:00,
2013-03-06 04:04:00,47.8,25.8,29.95,East,92,0.0,0.0,42,0.00,,---,0.00,VWS V14.01,2013-03-06 11:04:00,
2013-03-06 04:05:00,47.7,25.8,29.95,East,92,0.0,1.0,42,0.00,,---,0.00,VWS V14.01,2013-03-06 11:05:00,
2013-03-06 04:09:00,48.3,25.7,29.95,East,92,0.0,0.0,41,0.00,,---,0.00,VWS V14.01,2013-03-06 11:09:00,
2013-03-06 04:10:00,48.2,25.6,29.95,East,92,0.0,0.0,41,0.00,,---,0.00,VWS V14.01,2013-03-06 11:10:00,
2013-03-06 04:14:00,48.7,25.5,29.95,East,92,0.0,0.0,40,0.00,,---,0.00,VWS V14.01,2013-03-06 11:14:00,
2013-03-06 04:15:00,48.6,25.4,29.95,East,92,0.0,0.0,40,0.00,,---,0.00,VWS V14.01,2013-03-06 11:15:00,
2013-03-06 04:19:00,49.2,25.3,29.94,East,96,0.0,0.0,39,0.00,,---,0.00,VWS V14.01,2013-03-06 11:19:00,
2013-03-06 04:20:00,49.0,25.8,29.95,East,96,0.0,2.0,40,0.00,,---,0.00,VWS V14.01,2013-03-06 11:20:00,
2013-03-06 04:24:00,49.9,25.3,29.95,East,100,0.0,0.0,38,0.00,,---,0.00,VWS V14.01,2013-03-06 11:24:00,
2013-03-06 04:25:00,49.7,25.1,29.95,East,100,0.0,0.0,38,0.00,,---,0.00,VWS V14.01,2013-03-06 11:25:00,
2013-03-06 04:29:00,50.5,25.2,29.95,East,99,0.0,0.0,37,0.00,,---,0.00,VWS V14.01,2013-03-06 11:29:00,
2013-03-06 04:30:00,50.4,25.1,29.95,East,99,0.0,0.0,37,0.00,,---,0.00,VWS V14.01,2013-03-06 11:30:00,
2013-03-06 04:34:00,50.8,25.5,29.96,East,100,0.0,0.0,37,0.00,,---,0.00,VWS V14.01,2013-03-06 11:34:00,
2013-03-06 04:35:00,50.8,25.5,29.95,East,99,0.0,0.0,37,0.00,,---,0.00,VWS V14.01,2013-03-06 11:35:00,
2013-03-06 04:39:00,50.6,25.3,29.95,East,100,0.0,0.0,37,0.00,,---,0.00,VWS V14.01,2013-03-06 11:39:00,
2013-03-06 04:40:00,50.7,25.4,29.96,East,100,0.0,0.0,37,0.00,,---,0.00,VWS V14.01,2013-03-06 11:40:00,
2013-03-06 04:44:00,50.5,25.2,29.96,East,99,0.0,0.0,37,0.00,,---,0.00,VWS V14.01,2013-03-06 11:44:00,
2013-03-06 04:45:00,50.6,25.3,29.96,East,99,0.0,0.0,37,0.00,,---,0.00,VWS V14.01,2013-03-06 11:45:00,
2013-03-06 04:49:00,50.6,25.3,29.96,East,100,0.0,0.0,37,0.00,,---,0.00,VWS V14.01,2013-03-06 11:49:00,
2013-03-06 04:50:00,50.6,25.3,29.96,East,99,0.0,0.0,37,0.00,,---,0.00,VWS V14.01,2013-03-06 11:50:00,
2013-03-06 04:54:00,50.3,25.0,29.96,East,99,0.0,0.0,37,0.00,,---,0.00,VWS V14.01,2013-03-06 11:54:00,
2013-03-06 04:55:00,50.4,25.1,29.96,East,99,0.0,0.0,37,0.00,,---,0.00,VWS V14.01,2013-03-06 11:55:00,
2013-03-06 04:59:00,50.1,25.5,29.96,East,99,0.0,0.0,38,0.00,,---,0.00,VWS V14.01,2013-03-06 11:59:00,
2013-03-06 05:00:00,50.2,25.6,29.96,East,100,0.0,0.0,38,0.00,,---,0.00,VWS V14.01,2013-03-06 12:00:00,
2013-03-06 05:04:00,50.1,24.9,29.96,East,100,0.0,0.0,37,0.00,,---,0.00,VWS V14.01,2013-03-06 12:04:00,
2013-03-06 05:05:00,50.0,24.8,29.96,East,99,0.0,0.0,37,0.00,,---,0.00,VWS V14.01,2013-03-06 12:05:00,
2013-03-06 05:09:00,50.3,25.0,29.96,East,99,0.0,0.0,37,0.00,,---,0.00,VWS V14.01,2013-03-06 12:09:00,
2013-03-06 05:10:00,50.3,25.0,29.96,East,99,0.0,0.0,37,0.00,,---,0.00,VWS V14.01,2013-03-06 12:10:00,
2013-03-06 05:14:00,49.6,25.7,29.96,East,99,0.0,0.0,39,0.00,,---,0.00,VWS V14.01,2013-03-06 12:14:00,
2013-03-06 05:15:00,49.9,26.0,29.96,East,100,0.0,0.0,39,0.00,,---,0.00,VWS V14.01,2013-03-06 12:15:00,
2013-03-06 05:19:00,49.3,24.8,29.96,East,99,0.0,0.0,38,0.00,,---,0.00,VWS V14.01,2013-03-06 12:19:00,
2013-03-06 05:20:00,49.2,24.7,29.96,East,100,0.0,0.0,38,0.00,,---,0.00,VWS V14.01,2013-03-06 12:20:00,
2013-03-06 05:24:00,48.9,25.7,29.97,East,100,0.0,0.0,40,0.00,,---,0.00,VWS V14.01,2013-03-06 12:24:00,
2013-03-06 05:25:00,49.0,25.8,29.97,East,99,0.0,0.0,40,0.00,,---,0.00,VWS V14.01,2013-03-06 12:25:00,
2013-03-06 05:29:00,48.8,25.6,29.96,East,99,0.0,0.0,40,0.00,,---,0.00,VWS V14.01,2013-03-06 12:29:00,
2013-03-06 05:30:00,48.8,25.0,29.96,East,100,0.0,0.0,39,0.00,,---,0.00,VWS V14.01,2013-03-06 12:30:00,
2013-03-06 05:34:00,48.3,25.7,29.96,East,100,0.0,0.0,41,0.00,,---,0.00,VWS V14.01,2013-03-06 12:34:00,
2013-03-06 05:35:00,48.4,25.2,29.97,East,100,0.0,0.0,40,0.00,,---,0.00,VWS V14.01,2013-03-06 12:35:00,
2013-03-06 05:39:00,48.0,24.9,29.97,East,100,0.0,0.0,40,0.00,,---,0.00,VWS V14.01,2013-03-06 12:39:00,
2013-03-06 05:40:00,48.0,24.9,29.97,East,100,0.0,0.0,40,0.00,,---,0.00,VWS V14.01,2013-03-06 12:40:00,
2013-03-06 05:44:00,48.1,24.9,29.97,East,100,0.0,0.0,40,0.00,,---,0.00,VWS V14.01,2013-03-06 12:44:00,
2013-03-06 05:45:00,48.1,24.9,29.97,East,99,0.0,1.0,40,0.00,,---,0.00,VWS V14.01,2013-03-06 12:45:00,
2013-03-06 05:49:00,47.9,24.8,29.97,East,99,0.0,0.0,40,0.00,,---,0.00,VWS V14.01,2013-03-06 12:49:00,
2013-03-06 05:50:00,48.0,24.9,29.97,East,99,0.0,0.0,40,0.00,,---,0.00,VWS V14.01,2013-03-06 12:50:00,
2013-03-06 05:54:00,48.3,24.5,29.96,East,100,0.0,1.0,39,0.00,,---,0.00,VWS V14.01,2013-03-06 12:54:00,
2013-03-06 05:55:00,48.1,24.3,29.97,East,100,0.0,2.0,39,0.00,,---,0.00,VWS V14.01,2013-03-06 12:55:00,
2013-03-06 05:59:00,49.1,24.6,29.97,East,98,0.0,3.0,38,0.00,,---,0.00,VWS V14.01,2013-03-06 12:59:00,
2013-03-06 06:00:00,48.9,24.4,29.96,East,98,0.0,2.0,38,0.00,,---,0.00,VWS V14.01,2013-03-06 13:00:00,
2013-03-06 06:04:00,49.4,24.2,29.97,East,99,0.0,0.0,37,0.00,,---,0.00,VWS V14.01,2013-03-06 13:04:00,
2013-03-06 06:05:00,49.3,24.1,29.97,East,99,0.0,3.0,37,0.00,,---,0.00,VWS V14.01,2013-03-06 13:05:00,
2013-03-06 06:09:00,49.5,23.7,29.96,East,101,0.0,0.0,36,0.00,,---,0.00,VWS V14.01,2013-03-06 13:09:00,
2013-03-06 06:10:00,49.5,23.7,29.97,East,101,0.0,0.0,36,0.00,,---,0.00,VWS V14.01,2013-03-06 13:10:00,
2013-03-06 06:14:00,49.8,23.9,29.96,ESE,102,0.0,2.0,36,0.00,,---,0.00,VWS V14.01,2013-03-06 13:14:00,
2013-03-06 06:15:00,49.7,23.9,29.96,ESE,103,1.0,3.0,36,0.00,,---,0.00,VWS V14.01,2013-03-06 13:15:00,
2013-03-06 06:19:00,50.1,23.5,29.96,ESE,110,0.0,3.0,35,0.00,,---,0.00,VWS V14.01,2013-03-06 13:19:00,
2013-03-06 06:20:00,50.0,23.4,29.96,ESE,110,0.0,2.0,35,0.00,,---,0.00,VWS V14.01,2013-03-06 13:20:00,
2013-03-06 06:24:00,50.3,23.7,29.96,ESE,112,1.0,3.0,35,0.00,,---,0.00,VWS V14.01,2013-03-06 13:24:00,
2013-03-06 06:25:00,50.3,23.7,29.97,ESE,111,2.0,4.0,35,0.00,,---,0.00,VWS V14.01,2013-03-06 13:25:00,
2013-03-06 06:29:00,49.9,23.4,29.96,ESE,109,3.0,5.0,35,0.00,,---,0.00,VWS V14.01,2013-03-06 13:29:00,
2013-03-06 06:30:00,50.0,23.4,29.97,ESE,111,4.0,4.0,35,0.00,,---,0.00,VWS V14.01,2013-03-06 13:30:00,
2013-03-06 06:34:00,49.9,23.4,29.96,ESE,109,3.0,5.0,35,0.00,,---,0.00,VWS V14.01,2013-03-06 13:34:00,
2013-03-06 06:35:00,49.9,23.4,29.96,ESE,107,5.0,6.0,35,0.00,,---,0.00,VWS V14.01,2013-03-06 13:35:00,
2013-03-06 06:39:00,50.1,22.8,29.96,ESE,110,4.0,6.0,34,0.00,,---,0.00,VWS V14.01,2013-03-06 13:39:00,
2013-03-06 06:40:00,50.1,22.8,29.96,ESE,107,5.0,6.0,34,0.00,,---,0.00,VWS V14.01,2013-03-06 13:40:00,
2013-03-06 06:44:00,50.1,22.8,29.96,ESE,111,2.0,4.0,34,0.00,,---,0.00,VWS V14.01,2013-03-06 13:44:00,
2013-03-06 06:45:00,50.2,22.9,29.96,ESE,110,2.0,6.0,34,0.00,,---,0.00,VWS V14.01,2013-03-06 13:45:00,
2013-03-06 06:49:00,50.2,22.9,29.97,ESE,113,4.0,5.0,34,0.00,,---,0.00,VWS V14.01,2013-03-06 13:49:00,
2013-03-06 06:50:00,50.1,22.8,29.96,ESE,121,4.0,5.0,34,0.00,,---,0.00,VWS V14.01,2013-03-06 13:50:00,
2013-03-06 06:54:00,50.4,22.4,29.97,ESE,122,1.0,2.0,33,0.00,,---,0.00,VWS V14.01,2013-03-06 13:54:00,
2013-03-06 06:55:00,50.4,22.4,29.97,ESE,121,0.0,5.0,33,0.00,,---,0.00,VWS V14.01,2013-03-06 13:55:00,
2013-03-06 06:59:00,50.4,22.4,29.97,ESE,119,4.0,4.0,33,0.00,,---,0.00,VWS V14.01,2013-03-06 13:59:00,
2013-03-06 07:00:00,50.4,22.4,29.97,ESE,121,0.0,3.0,33,0.00,,---,0.00,VWS V14.01,2013-03-06 14:00:00,
2013-03-06 07:04:00,50.5,22.5,29.97,ESE,115,0.0,4.0,33,0.00,,---,0.00,VWS V14.01,2013-03-06 14:04:00,
2013-03-06 07:05:00,50.5,22.5,29.97,ESE,116,1.0,5.0,33,0.00,,---,0.00,VWS V14.01,2013-03-06 14:05:00,
2013-03-06 07:09:00,50.2,22.2,29.96,ESE,113,0.0,2.0,33,0.00,,---,0.00,VWS V14.01,2013-03-06 14:09:00,
2013-03-06 07:10:00,50.3,22.3,29.97,ESE,115,0.0,4.0,33,0.00,,---,0.00,VWS V14.01,2013-03-06 14:10:00,
2013-03-06 07:14:00,50.3,22.3,29.97,ESE,105,0.0,0.0,33,0.00,,---,0.00,VWS V14.01,2013-03-06 14:14:00,
2013-03-06 07:15:00,50.2,22.2,29.96,ESE,105,0.0,5.0,33,0.00,,---,0.00,VWS V14.01,2013-03-06 14:15:00,
2013-03-06 07:19:00,50.5,22.5,29.97,ESE,104,0.0,0.0,33,0.00,,---,0.00,VWS V14.01,2013-03-06 14:19:00,
2013-03-06 07:20:00,50.5,22.5,29.97,ESE,104,0.0,0.0,33,0.00,,---,0.00,VWS V14.01,2013-03-06 14:20:00,
2013-03-06 07:24:00,50.7,22.7,29.97,ESE,106,0.0,3.0,33,0.00,,---,0.00,VWS V14.01,2013-03-06 14:24:00,
2013-03-06 07:25:00,50.6,22.6,29.97,ESE,106,3.0,3.0,33,0.00,,---,0.00,VWS V14.01,2013-03-06 14:25:00,
2013-03-06 07:29:00,51.2,23.1,29.97,ESE,105,0.0,2.0,33,0.00,,---,0.00,VWS V14.01,2013-03-06 14:29:00,
2013-03-06 07:30:00,51.1,23.0,29.97,ESE,103,2.0,4.0,33,0.00,,---,0.00,VWS V14.01,2013-03-06 14:30:00,
2013-03-06 07:34:00,51.7,22.8,29.97,ESE,107,0.0,0.0,32,0.00,,---,0.00,VWS V14.01,2013-03-06 14:34:00,
2013-03-06 07:35:00,51.6,22.7,29.97,ESE,107,0.0,2.0,32,0.00,,---,0.00,VWS V14.01,2013-03-06 14:35:00,
2013-03-06 07:39:00,52.2,23.2,29.97,ESE,108,1.0,1.0,32,0.00,,---,0.00,VWS V14.01,2013-03-06 14:39:00,
2013-03-06 07:40:00,52.1,23.2,29.97,ESE,108,0.0,3.0,32,0.00,,---,0.00,VWS V14.01,2013-03-06 14:40:00,
2013-03-06 07:44:00,52.8,23.0,29.97,ESE,105,0.0,2.0,31,0.00,,---,0.00,VWS V14.01,2013-03-06 14:44:00,
2013-03-06 07:45:00,52.6,23.6,29.97,ESE,105,0.0,3.0,32,0.00,,---,0.00,VWS V14.01,2013-03-06 14:45:00,
2013-03-06 07:49:00,54.1,23.4,29.97,ESE,110,1.0,3.0,30,0.00,,---,0.00,VWS V14.01,2013-03-06 14:49:00,
2013-03-06 07:50:00,53.8,23.1,29.97,ESE,109,3.0,4.0,30,0.00,,---,0.00,VWS V14.01,2013-03-06 14:50:00,
2013-03-06 07:54:00,55.8,24.0,29.97,ESE,108,3.0,5.0,29,0.00,,---,0.00,VWS V14.01,2013-03-06 14:54:00,
2013-03-06 07:55:00,55.5,23.8,29.97,ESE,121,3.0,4.0,29,0.00,,---,0.00,VWS V14.01,2013-03-06 14:55:00,
2013-03-06 07:59:00,57.7,24.0,29.97,ESE,117,0.0,2.0,27,0.00,,---,0.00,VWS V14.01,2013-03-06 14:59:00,
2013-03-06 08:00:00,57.3,23.6,29.97,ESE,113,0.0,5.0,27,0.00,,---,0.00,VWS V14.01,2013-03-06 15:00:00,
2013-03-06 08:04:00,59.4,22.6,29.97,ESE,103,5.0,9.0,24,0.00,,---,0.00,VWS V14.01,2013-03-06 15:04:00,
2013-03-06 08:05:00,59.0,23.2,29.97,SE,128,3.0,5.0,25,0.00,,---,0.00,VWS V14.01,2013-03-06 15:05:00,
2013-03-06 08:09:00,60.5,22.5,29.97,SE,134,5.0,7.0,23,0.00,,---,0.00,VWS V14.01,2013-03-06 15:09:00,
2013-03-06 08:10:00,60.3,22.4,29.97,SE,144,5.0,10.0,23,0.00,,---,0.00,VWS V14.01,2013-03-06 15:10:00,
2013-03-06 08:14:00,61.2,22.1,29.97,SE,129,6.0,6.0,22,0.00,,---,0.00,VWS V14.01,2013-03-06 15:14:00,
2013-03-06 08:15:00,61.0,21.9,29.97,SE,135,5.0,7.0,22,0.00,,---,0.00,VWS V14.01,2013-03-06 15:15:00,
2013-03-06 08:19:00,61.8,21.5,29.97,SE,127,3.0,4.0,21,0.00,,---,0.00,VWS V14.01,2013-03-06 15:19:00,
2013-03-06 08:20:00,61.7,21.4,29.97,SE,126,3.0,8.0,21,0.00,,---,0.00,VWS V14.01,2013-03-06 15:20:00,
2013-03-06 08:24:00,62.2,20.7,29.98,SE,144,5.0,7.0,20,0.00,,---,0.00,VWS V14.01,2013-03-06 15:24:00,
2013-03-06 08:25:00,62.1,21.7,29.97,SSE,150,5.0,8.0,21,0.00,,---,0.00,VWS V14.01,2013-03-06 15:25:00,
2013-03-06 08:29:00,62.5,20.9,29.98,SE,142,2.0,5.0,20,0.00,,---,0.00,VWS V14.01,2013-03-06 15:29:00,
2013-03-06 08:30:00,62.4,20.8,29.98,SE,142,4.0,9.0,20,0.00,,---,0.00,VWS V14.01,2013-03-06 15:30:00,
2013-03-06 08:34:00,62.7,19.9,29.98,South,169,3.0,9.0,19,0.00,,---,0.00,VWS V14.01,2013-03-06 15:34:00,
2013-03-06 08:35:00,62.7,21.1,29.98,South,169,4.0,10.0,20,0.00,,---,0.00,VWS V14.01,2013-03-06 15:35:00,
2013-03-06 08:39:00,63.0,20.1,29.98,South,177,4.0,6.0,19,0.00,,---,0.00,VWS V14.01,2013-03-06 15:39:00,
2013-03-06 08:40:00,63.0,21.3,29.98,South,169,3.0,9.0,20,0.00,,---,0.00,VWS V14.01,2013-03-06 15:40:00,
2013-03-06 08:44:00,63.2,20.3,29.98,South,186,5.0,6.0,19,0.00,,---,0.00,VWS V14.01,2013-03-06 15:44:00,
2013-03-06 08:45:00,63.2,20.3,29.98,South,186,3.0,9.0,19,0.00,,---,0.00,VWS V14.01,2013-03-06 15:45:00,
2013-03-06 08:49:00,63.3,20.4,29.98,SSE,155,3.0,9.0,19,0.00,,---,0.00,VWS V14.01,2013-03-06 15:49:00,
2013-03-06 08:50:00,63.4,20.5,29.98,SSE,158,4.0,8.0,19,0.00,,---,0.00,VWS V14.01,2013-03-06 15:50:00,
2013-03-06 08:54:00,63.3,20.4,29.98,SSE,156,5.0,10.0,19,0.00,,---,0.00,VWS V14.01,2013-03-06 15:54:00,
2013-03-06 08:55:00,63.2,20.3,29.98,South,188,7.0,11.0,19,0.00,,---,0.00,VWS V14.01,2013-03-06 15:55:00,
2013-03-06 08:59:00,64.2,21.1,29.97,South,177,6.0,6.0,19,0.00,,---,0.00,VWS V14.01,2013-03-06 15:59:00,
2013-03-06 09:00:00,63.9,20.9,29.97,SSE,168,2.0,10.0,19,0.00,,---,0.00,VWS V14.01,2013-03-06 16:00:00,
2013-03-06 09:04:00,64.7,21.5,29.97,SSE,165,6.0,10.0,19,0.00,,---,0.00,VWS V14.01,2013-03-06 16:04:00,
2013-03-06 09:05:00,64.7,21.5,29.97,South,186,6.0,11.0,19,0.00,,---,0.00,VWS V14.01,2013-03-06 16:05:00,
2013-03-06 09:09:00,64.5,20.1,29.97,South,173,3.0,5.0,18,0.00,,---,0.00,VWS V14.01,2013-03-06 16:09:00,
2013-03-06 09:10:00,64.6,20.2,29.97,South,179,4.0,10.0,18,0.00,,---,0.00,VWS V14.01,2013-03-06 16:10:00,
2013-03-06 09:14:00,64.5,20.1,29.97,SSE,164,6.0,6.0,18,0.00,,---,0.00,VWS V14.01,2013-03-06 16:14:00,
2013-03-06 09:15:00,64.5,20.1,29.97,South,175,3.0,9.0,18,0.00,,---,0.00,VWS V14.01,2013-03-06 16:15:00,
2013-03-06 09:19:00,64.4,20.0,29.97,SSE,165,2.0,6.0,18,0.00,,---,0.00,VWS V14.01,2013-03-06 16:19:00,
2013-03-06 09:20:00,64.4,20.0,29.97,SSE,167,2.0,9.0,18,0.00,,---,0.00,VWS V14.01,2013-03-06 16:20:00,
2013-03-06 09:24:00,64.9,20.4,29.97,SSE,150,4.0,9.0,18,0.00,,---,0.00,VWS V14.01,2013-03-06 16:24:00,
2013-03-06 09:25:00,64.8,20.3,29.97,SSE,148,4.0,6.0,18,0.00,,---,0.00,VWS V14.01,2013-03-06 16:25:00,
2013-03-06 09:29:00,65.8,19.8,29.97,SSE,152,5.0,9.0,17,0.00,,---,0.00,VWS V14.01,2013-03-06 16:29:00,
2013-03-06 09:30:00,65.7,21.1,29.97,SSE,162,6.0,10.0,18,0.00,,---,0.00,VWS V14.01,2013-03-06 16:30:00,
2013-03-06 09:34:00,66.1,21.4,29.97,SSE,152,5.0,9.0,18,0.00,,---,0.00,VWS V14.01,2013-03-06 16:34:00,
2013-03-06 09:35:00,65.8,21.1,29.97,SSE,155,4.0,12.0,18,0.00,,---,0.00,VWS V14.01,2013-03-06 16:35:00,
2013-03-06 09:39:00,66.7,20.5,29.96,South,172,3.0,10.0,17,0.00,,---,0.00,VWS V14.01,2013-03-06 16:39:00,
2013-03-06 09:40:00,66.7,21.9,29.96,SSE,155,10.0,10.0,18,0.00,,---,0.00,VWS V14.01,2013-03-06 16:40:00,
2013-03-06 09:44:00,67.3,22.4,29.97,SE,136,6.0,10.0,18,0.00,,---,0.00,VWS V14.01,2013-03-06 16:44:00,
2013-03-06 09:45:00,67.4,22.5,29.97,SSE,163,10.0,12.0,18,0.00,,---,0.00,VWS V14.01,2013-03-06 16:45:00,
2013-03-06 09:49:00,67.4,22.5,29.97,SSE,165,9.0,11.0,18,0.00,,---,0.00,VWS V14.01,2013-03-06 16:49:00,
2013-03-06 09:50:00,67.5,22.5,29.96,SE,138,11.0,13.0,18,0.00,,---,0.00,VWS V14.01,2013-03-06 16:50:00,
2013-03-06 09:54:00,68.0,23.0,29.96,South,182,5.0,11.0,18,0.00,,---,0.00,VWS V14.01,2013-03-06 16:54:00,
2013-03-06 09:55:00,68.0,23.0,29.96,SSE,153,6.0,11.0,18,0.00,,---,0.00,VWS V14.01,2013-03-06 16:55:00,
2013-03-06 09:59:00,68.1,23.0,29.96,SE,138,4.0,7.0,18,0.00,,---,0.00,VWS V14.01,2013-03-06 16:59:00,
2013-03-06 10:00:00,68.0,21.6,29.96,SSE,163,4.0,12.0,17,0.00,,---,0.00,VWS V14.01,2013-03-06 17:00:00,
2013-03-06 10:04:00,68.7,23.5,29.96,SSW,196,3.0,10.0,18,0.00,,---,0.00,VWS V14.01,2013-03-06 17:04:00,
2013-03-06 10:05:00,68.6,23.4,29.96,SSE,157,3.0,7.0,18,0.00,,---,0.00,VWS V14.01,2013-03-06 17:05:00,
2013-03-06 10:09:00,68.7,22.2,29.96,SSW,210,4.0,6.0,17,0.00,,---,0.00,VWS V14.01,2013-03-06 17:09:00,
2013-03-06 10:10:00,68.6,23.4,29.96,SSW,203,6.0,10.0,18,0.00,,---,0.00,VWS V14.01,2013-03-06 17:10:00,
2013-03-06 10:14:00,69.4,22.7,29.96,SSE,165,4.0,7.0,17,0.00,,---,0.00,VWS V14.01,2013-03-06 17:14:00,
2013-03-06 10:15:00,69.2,23.9,29.96,South,190,4.0,6.0,18,0.00,,---,0.00,VWS V14.01,2013-03-06 17:15:00,
2013-03-06 10:19:00,69.6,24.2,29.96,South,187,4.0,5.0,18,0.00,,---,0.00,VWS V14.01,2013-03-06 17:19:00,
2013-03-06 10:20:00,69.6,24.2,29.96,SSW,198,5.0,10.0,18,0.00,,---,0.00,VWS V14.01,2013-03-06 17:20:00,
2013-03-06 10:24:00,70.3,24.8,29.96,SSW,206,4.0,6.0,18,0.00,,---,0.00,VWS V14.01,2013-03-06 17:24:00,
2013-03-06 10:25:00,70.3,24.8,29.96,SSW,196,6.0,11.0,18,0.00,,---,0.00,VWS V14.01,2013-03-06 17:25:00,
2013-03-06 10:29:00,70.2,24.7,29.96,South,190,6.0,7.0,18,0.00,,---,0.00,VWS V14.01,2013-03-06 17:29:00,
2013-03-06 10:30:00,70.3,24.8,29.96,SW,227,7.0,10.0,18,0.00,,---,0.00,VWS V14.01,2013-03-06 17:30:00,
2013-03-06 10:34:00,69.8,24.4,29.96,SW,214,2.0,7.0,18,0.00,,---,0.00,VWS V14.01,2013-03-06 17:34:00,
2013-03-06 10:35:00,69.9,24.5,29.96,SW,216,6.0,10.0,18,0.00,,---,0.00,VWS V14.01,2013-03-06 17:35:00,
2013-03-06 10:39:00,70.6,26.4,29.95,SE,141,5.0,5.0,19,0.00,,---,0.00,VWS V14.01,2013-03-06 17:39:00,
2013-03-06 10:40:00,70.5,25.0,29.95,South,181,1.0,10.0,18,0.00,,---,0.00,VWS V14.01,2013-03-06 17:40:00,
2013-03-06 10:44:00,70.6,27.6,29.95,South,175,3.0,12.0,20,0.00,,---,0.00,VWS V14.01,2013-03-06 17:44:00,
2013-03-06 10:45:00,70.5,26.3,29.95,SSW,207,10.0,11.0,19,0.00,,---,0.00,VWS V14.01,2013-03-06 17:45:00,
2013-03-06 10:49:00,70.8,26.5,29.95,SW,232,7.0,9.0,19,0.00,,---,0.00,VWS V14.01,2013-03-06 17:49:00,
2013-03-06 10:50:00,70.8,27.8,29.95,SSW,213,5.0,14.0,20,0.00,,---,0.00,VWS V14.01,2013-03-06 17:50:00,
2013-03-06 10:54:00,70.4,26.2,29.95,SSW,193,7.0,10.0,19,0.00,,---,0.00,VWS V14.01,2013-03-06 17:54:00,
2013-03-06 10:55:00,70.4,27.5,29.95,SSW,210,3.0,9.0,20,0.00,,---,0.00,VWS V14.01,2013-03-06 17:55:00,
2013-03-06 10:59:00,71.0,28.0,29.95,SSW,209,4.0,6.0,20,0.00,,---,0.00,VWS V14.01,2013-03-06 17:59:00,
2013-03-06 11:00:00,71.0,28.0,29.95,SW,229,2.0,13.0,20,0.00,,---,0.00,VWS V14.01,2013-03-06 18:00:00,
2013-03-06 11:04:00,71.2,28.1,29.95,South,191,4.0,9.0,20,0.00,,---,0.00,VWS V14.01,2013-03-06 18:04:00,
2013-03-06 11:05:00,70.9,29.0,29.95,SSE,165,6.0,10.0,21,0.00,,---,0.00,VWS V14.01,2013-03-06 18:05:00,
2013-03-06 11:09:00,71.3,28.2,29.94,SW,220,1.0,9.0,20,0.00,,---,0.00,VWS V14.01,2013-03-06 18:09:00,
2013-03-06 11:10:00,71.3,28.2,29.94,South,185,2.0,11.0,20,0.00,,---,0.00,VWS V14.01,2013-03-06 18:10:00,
2013-03-06 11:14:00,71.5,28.4,29.94,WSW,246,0.0,2.0,20,0.00,,---,0.00,VWS V14.01,2013-03-06 18:14:00,
2013-03-06 11:15:00,71.5,28.4,29.94,WSW,246,2.0,10.0,20,0.00,,---,0.00,VWS V14.01,2013-03-06 18:15:00,
2013-03-06 11:19:00,72.3,27.8,29.94,SSW,207,4.0,6.0,19,0.00,,---,0.00,VWS V14.01,2013-03-06 18:19:00,
2013-03-06 11:20:00,72.2,27.7,29.94,SSW,213,6.0,11.0,19,0.00,,---,0.00,VWS V14.01,2013-03-06 18:20:00,
2013-03-06 11:24:00,72.8,28.2,29.94,SW,216,2.0,5.0,19,0.00,,---,0.00,VWS V14.01,2013-03-06 18:24:00,
2013-03-06 11:25:00,72.7,28.1,29.94,SW,216,5.0,7.0,19,0.00,,---,0.00,VWS V14.01,2013-03-06 18:25:00,
2013-03-06 11:29:00,73.9,29.1,29.93,SSW,211,2.0,9.0,19,0.00,,---,0.00,VWS V14.01,2013-03-06 18:29:00,
2013-03-06 11:30:00,73.7,28.9,29.93,South,188,9.0,10.0,19,0.00,,---,0.00,VWS V14.01,2013-03-06 18:30:00,
2013-03-06 11:34:00,74.1,29.2,29.93,SSW,207,3.0,6.0,19,0.00,,---,0.00,VWS V14.01,2013-03-06 18:34:00,
2013-03-06 11:35:00,74.0,29.2,29.93,SSE,157,6.0,11.0,19,0.00,,---,0.00,VWS V14.01,2013-03-06 18:35:00,
2013-03-06 11:39:00,74.7,29.7,29.92,SSW,196,10.0,10.0,19,0.00,,---,0.00,VWS V14.01,2013-03-06 18:39:00,
2013-03-06 11:40:00,74.5,29.6,29.92,SW,232,5.0,9.0,19,0.00,,---,0.00,VWS V14.01,2013-03-06 18:40:00,
2013-03-06 11:44:00,74.6,29.7,29.92,SW,230,12.0,14.0,19,0.00,,---,0.00,VWS V14.01,2013-03-06 18:44:00,
2013-03-06 11:45:00,74.7,29.7,29.92,South,177,3.0,12.0,19,0.00,,---,0.00,VWS V14.01,2013-03-06 18:45:00,
2013-03-06 11:49:00,74.2,30.6,29.92,SSW,211,11.0,13.0,20,0.00,,---,0.00,VWS V14.01,2013-03-06 18:49:00,
2013-03-06 11:50:00,74.1,30.5,29.92,South,187,12.0,18.0,20,0.00,,---,0.00,VWS V14.01,2013-03-06 18:50:00,
2013-03-06 11:54:00,74.3,30.7,29.91,SSW,197,4.0,11.0,20,0.00,,---,0.00,VWS V14.01,2013-03-06 18:54:00,
2013-03-06 11:55:00,74.3,30.7,29.92,South,173,11.0,14.0,20,0.00,,---,0.00,VWS V14.01,2013-03-06 18:55:00,
2013-03-06 11:59:00,74.2,29.3,29.92,SW,232,8.0,11.0,19,0.00,,---,0.00,VWS V14.01,2013-03-06 18:59:00,
2013-03-06 12:00:00,74.2,30.6,29.92,WSW,248,11.0,12.0,20,0.00,,---,0.00,VWS V14.01,2013-03-06 19:00:00,
2013-03-06 12:04:00,74.0,30.4,29.91,SSW,200,6.0,6.0,20,0.00,,---,0.00,VWS V14.01,2013-03-06 19:04:00,
2013-03-06 12:05:00,74.0,30.4,29.91,SW,227,5.0,15.0,20,0.00,,---,0.00,VWS V14.01,2013-03-06 19:05:00,
2013-03-06 12:09:00,74.1,30.5,29.91,SSW,200,7.0,7.0,20,0.00,,---,0.00,VWS V14.01,2013-03-06 19:09:00,
2013-03-06 12:10:00,74.0,30.4,29.92,SW,225,1.0,15.0,20,0.00,,---,0.00,VWS V14.01,2013-03-06 19:10:00,
2013-03-06 12:14:00,74.7,29.7,29.91,WNW,300,4.0,11.0,19,0.00,,---,0.00,VWS V14.01,2013-03-06 19:14:00,
2013-03-06 12:15:00,74.7,29.7,29.91,West,259,9.0,15.0,19,0.00,,---,0.00,VWS V14.01,2013-03-06 19:15:00,
2013-03-06 12:19:00,74.0,29.2,29.90,WNW,289,4.0,5.0,19,0.00,,---,0.00,VWS V14.01,2013-03-06 19:19:00,
2013-03-06 12:20:00,74.1,29.2,29.90,West,272,5.0,12.0,19,0.00,,---,0.00,VWS V14.01,2013-03-06 19:20:00,
2013-03-06 12:24:00,74.1,30.5,29.90,West,280,10.0,13.0,20,0.00,,---,0.00,VWS V14.01,2013-03-06 19:24:00,
2013-03-06 12:25:00,74.1,29.2,29.90,NW,313,3.0,6.0,19,0.00,,---,0.00,VWS V14.01,2013-03-06 19:25:00,
2013-03-06 12:29:00,74.0,30.4,29.89,South,190,11.0,12.0,20,0.00,,---,0.00,VWS V14.01,2013-03-06 19:29:00,
2013-03-06 12:30:00,73.8,29.0,29.90,West,259,6.0,14.0,19,0.00,,---,0.00,VWS V14.01,2013-03-06 19:30:00,
2013-03-06 12:34:00,75.0,31.2,29.89,SW,234,13.0,16.0,20,0.00,,---,0.00,VWS V14.01,2013-03-06 19:34:00,
2013-03-06 12:35:00,74.8,31.1,29.89,SW,214,10.0,18.0,20,0.00,,---,0.00,VWS V14.01,2013-03-06 19:35:00,
2013-03-06 12:39:00,74.7,32.2,29.89,SW,225,7.0,11.0,21,0.00,,---,0.00,VWS V14.01,2013-03-06 19:39:00,
2013-03-06 12:40:00,74.8,31.1,29.89,West,261,11.0,19.0,20,0.00,,---,0.00,VWS V14.01,2013-03-06 19:40:00,
2013-03-06 12:44:00,75.2,32.6,29.89,SW,219,16.0,16.0,21,0.00,,---,0.00,VWS V14.01,2013-03-06 19:44:00,
2013-03-06 12:45:00,75.1,32.5,29.88,SW,225,6.0,16.0,21,0.00,,---,0.00,VWS V14.01,2013-03-06 19:45:00,
2013-03-06 12:49:00,75.3,32.7,29.88,SW,234,15.0,18.0,21,0.00,,---,0.00,VWS V14.01,2013-03-06 19:49:00,
2013-03-06 12:50:00,75.1,32.5,29.89,SW,232,13.0,21.0,21,0.00,,---,0.00,VWS V14.01,2013-03-06 19:50:00,
2013-03-06 12:54:00,74.9,32.4,29.88,SW,220,10.0,11.0,21,0.00,,---,0.00,VWS V14.01,2013-03-06 19:54:00,
2013-03-06 12:55:00,75.0,32.5,29.88,SW,225,10.0,19.0,21,0.00,,---,0.00,VWS V14.01,2013-03-06 19:55:00,
2013-03-06 12:59:00,74.9,32.4,29.88,SW,220,4.0,8.0,21,0.00,,---,0.00,VWS V14.01,2013-03-06 19:59:00,
2013-03-06 13:00:00,75.0,32.5,29.87,SW,219,5.0,14.0,21,0.00,,---,0.00,VWS V14.01,2013-03-06 20:00:00,
2013-03-06 13:04:00,75.6,33.0,29.87,SW,223,11.0,16.0,21,0.00,,---,0.00,VWS V14.01,2013-03-06 20:04:00,
2013-03-06 13:05:00,75.5,31.7,29.87,SSW,204,10.0,16.0,20,0.00,,---,0.00,VWS V14.01,2013-03-06 20:05:00,
2013-03-06 13:09:00,75.6,33.0,29.87,SSW,211,4.0,20.0,21,0.00,,---,0.00,VWS V14.01,2013-03-06 20:09:00,
2013-03-06 13:10:00,75.7,33.0,29.86,WSW,243,14.0,19.0,21,0.00,,---,0.00,VWS V14.01,2013-03-06 20:10:00,
2013-03-06 13:14:00,75.6,33.0,29.86,West,275,20.0,20.0,21,0.00,,---,0.00,VWS V14.01,2013-03-06 20:14:00,
2013-03-06 13:15:00,75.6,33.0,29.86,West,261,16.0,20.0,21,0.00,,---,0.00,VWS V14.01,2013-03-06 20:15:00,
2013-03-06 13:19:00,74.9,32.4,29.86,WSW,252,7.0,13.0,21,0.00,,---,0.00,VWS V14.01,2013-03-06 20:19:00,
2013-03-06 13:20:00,75.1,32.5,29.86,West,265,13.0,27.0,21,0.00,,---,0.00,VWS V14.01,2013-03-06 20:20:00,
2013-03-06 13:24:00,75.4,32.8,29.85,WSW,241,13.0,18.0,21,0.00,,---,0.00,VWS V14.01,2013-03-06 20:24:00,
2013-03-06 13:25:00,75.2,32.6,29.85,SW,227,10.0,13.0,21,0.00,,---,0.00,VWS V14.01,2013-03-06 20:25:00,
2013-03-06 13:29:00,76.0,32.1,29.85,West,271,14.0,14.0,20,0.00,,---,0.00,VWS V14.01,2013-03-06 20:29:00,
2013-03-06 13:30:00,76.1,32.2,29.85,WSW,246,10.0,22.0,20,0.00,,---,0.00,VWS V14.01,2013-03-06 20:30:00,
2013-03-06 13:34:00,76.0,32.1,29.85,West,260,14.0,17.0,20,0.00,,---,0.00,VWS V14.01,2013-03-06 20:34:00,
2013-03-06 13:35:00,75.9,32.0,29.85,WSW,256,15.0,18.0,20,0.00,,---,0.00,VWS V14.01,2013-03-06 20:35:00,
2013-03-06 13:39:00,76.3,32.3,29.85,WSW,252,8.0,17.0,20,0.00,,---,0.00,VWS V14.01,2013-03-06 20:39:00,
2013-03-06 13:40:00,76.2,32.2,29.85,SW,217,15.0,18.0,20,0.00,,---,0.00,VWS V14.01,2013-03-06 20:40:00,
2013-03-06 13:44:00,76.4,32.4,29.84,WSW,244,14.0,21.0,20,0.00,,---,0.00,VWS V14.01,2013-03-06 20:44:00,
2013-03-06 13:45:00,76.4,32.4,29.84,West,259,21.0,22.0,20,0.00,,---,0.00,VWS V14.01,2013-03-06 20:45:00,
2013-03-06 13:49:00,76.7,32.7,29.84,West,268,12.0,16.0,20,0.00,,---,0.00,VWS V14.01,2013-03-06 20:49:00,
2013-03-06 13:50:00,76.8,32.7,29.84,WSW,250,14.0,21.0,20,0.00,,---,0.00,VWS V14.01,2013-03-06 20:50:00,
2013-03-06 13:54:00,76.2,32.2,29.84,WSW,249,20.0,20.0,20,0.00,,---,0.00,VWS V14.01,2013-03-06 20:54:00,
2013-03-06 13:55:00,76.3,32.3,29.84,WSW,250,10.0,20.0,20,0.00,,---,0.00,VWS V14.01,2013-03-06 20:55:00,
2013-03-06 13:59:00,75.6,31.7,29.84,South,184,11.0,13.0,20,0.00,,---,0.00,VWS V14.01,2013-03-06 20:59:00,
2013-03-06 14:00:00,75.5,31.7,29.84,SW,222,12.0,20.0,20,0.00,,---,0.00,VWS V14.01,2013-03-06 21:00:00,
2013-03-06 14:04:00,76.8,32.7,29.84,WSW,248,10.0,18.0,20,0.00,,---,0.00,VWS V14.01,2013-03-06 21:04:00,
2013-03-06 14:05:00,76.5,31.2,29.84,WSW,254,12.0,19.0,19,0.00,,---,0.00,VWS V14.01,2013-03-06 21:05:00,
2013-03-06 14:09:00,77.0,31.6,29.83,SSW,206,10.0,14.0,19,0.00,,---,0.00,VWS V14.01,2013-03-06 21:09:00,
2013-03-06 14:10:00,77.0,31.6,29.84,SSW,207,11.0,23.0,19,0.00,,---,0.00,VWS V14.01,2013-03-06 21:10:00,
2013-03-06 14:14:00,77.2,31.8,29.83,SW,233,15.0,22.0,19,0.00,,---,0.00,VWS V14.01,2013-03-06 21:14:00,
2013-03-06 14:15:00,77.2,31.8,29.83,WSW,256,20.0,21.0,19,0.00,,---,0.00,VWS V14.01,2013-03-06 21:15:00,
2013-03-06 14:19:00,76.4,31.1,29.83,West,273,15.0,16.0,19,0.00,,---,0.00,VWS V14.01,2013-03-06 21:19:00,
2013-03-06 14:20:00,76.3,31.0,29.84,West,269,14.0,22.0,19,0.00,,---,0.00,VWS V14.01,2013-03-06 21:20:00,
2013-03-06 14:24:00,76.4,29.8,29.83,WSW,245,9.0,14.0,18,0.00,,---,0.00,VWS V14.01,2013-03-06 21:24:00,
2013-03-06 14:25:00,76.6,30.0,29.83,SW,218,13.0,22.0,18,0.00,,---,0.00,VWS V14.01,2013-03-06 21:25:00,
2013-03-06 14:29:00,76.6,30.0,29.83,South,173,13.0,16.0,18,0.00,,---,0.00,VWS V14.01,2013-03-06 21:29:00,
2013-03-06 14:30:00,76.5,29.9,29.83,SSW,211,10.0,21.0,18,0.00,,---,0.00,VWS V14.01,2013-03-06 21:30:00,
2013-03-06 14:34:00,77.7,29.5,29.83,WSW,247,12.0,17.0,17,0.00,,---,0.00,VWS V14.01,2013-03-06 21:34:00,
2013-03-06 14:35:00,77.5,29.3,29.82,SW,227,5.0,17.0,17,0.00,,---,0.00,VWS V14.01,2013-03-06 21:35:00,
2013-03-06 14:39:00,77.1,29.0,29.82,SW,221,6.0,12.0,17,0.00,,---,0.00,VWS V14.01,2013-03-06 21:39:00,
2013-03-06 14:40:00,77.1,29.0,29.83,SW,221,12.0,19.0,17,0.00,,---,0.00,VWS V14.01,2013-03-06 21:40:00,
2013-03-06 14:44:00,77.4,29.2,29.82,SW,233,19.0,19.0,17,0.00,,---,0.00,VWS V14.01,2013-03-06 21:44:00,
2013-03-06 14:45:00,77.4,29.2,29.82,SW,214,11.0,19.0,17,0.00,,---,0.00,VWS V14.01,2013-03-06 21:45:00,
2013-03-06 14:49:00,76.7,28.6,29.82,WSW,245,16.0,20.0,17,0.00,,---,0.00,VWS V14.01,2013-03-06 21:49:00,
2013-03-06 14:50:00,76.7,28.6,29.82,SW,225,10.0,20.0,17,0.00,,---,0.00,VWS V14.01,2013-03-06 21:50:00,
2013-03-06 14:54:00,76.1,30.9,29.82,WSW,249,13.0,15.0,19,0.00,,---,0.00,VWS V14.01,2013-03-06 21:54:00,
2013-03-06 14:55:00,76.2,31.0,29.82,WSW,249,15.0,20.0,19,0.00,,---,0.00,VWS V14.01,2013-03-06 21:55:00,
2013-03-06 14:59:00,76.1,29.6,29.82,West,263,12.0,18.0,18,0.00,,---,0.00,VWS V14.01,2013-03-06 21:59:00,
2013-03-06 15:00:00,76.1,29.6,29.82,SW,232,11.0,17.0,18,0.00,,---,0.00,VWS V14.01,2013-03-06 22:00:00,
2013-03-06 15:04:00,76.1,29.6,29.82,WSW,246,6.0,16.0,18,0.00,,---,0.00,VWS V14.01,2013-03-06 22:04:00,
2013-03-06 15:05:00,76.2,29.6,29.82,West,260,15.0,21.0,18,0.00,,---,0.00,VWS V14.01,2013-03-06 22:05:00,
2013-03-06 15:09:00,76.6,30.0,29.82,West,270,11.0,19.0,18,0.00,,---,0.00,VWS V14.01,2013-03-06 22:09:00,
2013-03-06 15:10:00,76.5,29.9,29.82,SW,236,12.0,16.0,18,0.00,,---,0.00,VWS V14.01,2013-03-06 22:10:00,
2013-03-06 15:14:00,77.2,30.5,29.82,WSW,252,20.0,21.0,18,0.00,,---,0.00,VWS V14.01,2013-03-06 22:14:00,
2013-03-06 15:15:00,77.0,30.3,29.82,SW,234,15.0,20.0,18,0.00,,---,0.00,VWS V14.01,2013-03-06 22:15:00,
2013-03-06 15:19:00,76.4,29.8,29.82,WSW,239,7.0,13.0,18,0.00,,---,0.00,VWS V14.01,2013-03-06 22:19:00,
2013-03-06 15:20:00,76.5,29.9,29.82,WSW,244,7.0,21.0,18,0.00,,---,0.00,VWS V14.01,2013-03-06 22:20:00,
2013-03-06 15:24:00,76.2,29.6,29.82,SW,217,3.0,8.0,18,0.00,,---,0.00,VWS V14.01,2013-03-06 22:24:00,
2013-03-06 15:25:00,76.1,29.6,29.82,WSW,240,5.0,18.0,18,0.00,,---,0.00,VWS V14.01,2013-03-06 22:25:00,
2013-03-06 15:29:00,76.9,28.8,29.82,SW,226,11.0,16.0,17,0.00,,---,0.00,VWS V14.01,2013-03-06 22:29:00,
2013-03-06 15:30:00,76.8,28.7,29.82,WSW,248,16.0,21.0,17,0.00,,---,0.00,VWS V14.01,2013-03-06 22:30:00,
2013-03-06 15:34:00,76.6,30.0,29.81,West,267,13.0,19.0,18,0.00,,---,0.00,VWS V14.01,2013-03-06 22:34:00,
2013-03-06 15:35:00,76.7,28.6,29.81,West,279,14.0,18.0,17,0.00,,---,0.00,VWS V14.01,2013-03-06 22:35:00,
2013-03-06 15:39:00,76.2,29.6,29.82,West,263,13.0,18.0,18,0.00,,---,0.00,VWS V14.01,2013-03-06 22:39:00,
2013-03-06 15:40:00,76.2,29.6,29.82,WSW,246,14.0,21.0,18,0.00,,---,0.00,VWS V14.01,2013-03-06 22:40:00,
2013-03-06 15:44:00,76.1,29.6,29.82,SW,236,13.0,13.0,18,0.00,,---,0.00,VWS V14.01,2013-03-06 22:44:00,
2013-03-06 15:45:00,76.0,29.5,29.81,SW,235,8.0,20.0,18,0.00,,---,0.00,VWS V14.01,2013-03-06 22:45:00,
2013-03-06 15:49:00,76.0,29.5,29.81,SW,234,14.0,15.0,18,0.00,,---,0.00,VWS V14.01,2013-03-06 22:49:00,
2013-03-06 15:50:00,75.9,29.4,29.81,WSW,256,13.0,15.0,18,0.00,,---,0.00,VWS V14.01,2013-03-06 22:50:00,
2013-03-06 15:54:00,76.1,29.6,29.81,West,271,5.0,9.0,18,0.00,,---,0.00,VWS V14.01,2013-03-06 22:54:00,
2013-03-06 15:55:00,76.2,29.6,29.81,WNW,288,9.0,19.0,18,0.00,,---,0.00,VWS V14.01,2013-03-06 22:55:00,
2013-03-06 15:59:00,76.2,28.2,29.81,SW,221,7.0,14.0,17,0.00,,---,0.00,VWS V14.01,2013-03-06 22:59:00,
2013-03-06 16:00:00,76.2,28.2,29.81,SW,236,11.0,13.0,17,0.00,,---,0.00,VWS V14.01,2013-03-06 23:00:00,
2013-03-06 16:04:00,76.0,26.6,29.81,West,270,9.0,13.0,16,0.00,,---,0.00,VWS V14.01,2013-03-06 23:04:00,
2013-03-06 16:05:00,76.2,28.2,29.81,WSW,253,12.0,18.0,17,0.00,,---,0.00,VWS V14.01,2013-03-06 23:05:00,
2013-03-06 16:09:00,76.0,28.1,29.81,SW,229,10.0,17.0,17,0.00,,---,0.00,VWS V14.01,2013-03-06 23:09:00,
2013-03-06 16:10:00,76.0,28.1,29.81,SW,231,9.0,17.0,17,0.00,,---,0.00,VWS V14.01,2013-03-06 23:10:00,
2013-03-06 16:14:00,76.0,26.6,29.81,WSW,240,12.0,20.0,16,0.00,,---,0.00,VWS V14.01,2013-03-06 23:14:00,
2013-03-06 16:15:00,76.1,26.7,29.81,West,261,18.0,22.0,16,0.00,,---,0.00,VWS V14.01,2013-03-06 23:15:00,
2013-03-06 16:19:00,75.7,26.4,29.81,WSW,254,11.0,15.0,16,0.00,,---,0.00,VWS V14.01,2013-03-06 23:19:00,
2013-03-06 16:20:00,75.8,26.5,29.81,West,269,11.0,20.0,16,0.00,,---,0.00,VWS V14.01,2013-03-06 23:20:00,
2013-03-06 16:24:00,76.0,26.6,29.81,SW,236,7.0,17.0,16,0.00,,---,0.00,VWS V14.01,2013-03-06 23:24:00,
2013-03-06 16:25:00,76.1,26.7,29.81,SSW,208,17.0,17.0,16,0.00,,---,0.00,VWS V14.01,2013-03-06 23:25:00,
2013-03-06 16:29:00,76.0,25.1,29.81,WSW,244,12.0,12.0,15,0.00,,---,0.00,VWS V14.01,2013-03-06 23:29:00,
2013-03-06 16:30:00,75.9,26.5,29.81,SW,232,10.0,17.0,16,0.00,,---,0.00,VWS V14.01,2013-03-06 23:30:00,
2013-03-06 16:34:00,75.3,24.5,29.81,WSW,250,10.0,13.0,15,0.00,,---,0.00,VWS V14.01,2013-03-06 23:34:00,
2013-03-06 16:35:00,75.4,24.6,29.81,WSW,257,11.0,19.0,15,0.00,,---,0.00,VWS V14.01,2013-03-06 23:35:00,
2013-03-06 16:39:00,75.2,22.8,29.81,WSW,252,9.0,15.0,14,0.00,,---,0.00,VWS V14.01,2013-03-06 23:39:00,
2013-03-06 16:40:00,75.2,22.8,29.81,WSW,249,10.0,17.0,14,0.00,,---,0.00,VWS V14.01,2013-03-06 23:40:00,
2013-03-06 16:44:00,75.1,22.7,29.81,West,261,13.0,17.0,14,0.00,,---,0.00,VWS V14.01,2013-03-06 23:44:00,
2013-03-06 16:45:00,75.2,22.8,29.81,WSW,254,12.0,20.0,14,0.00,,---,0.00,VWS V14.01,2013-03-06 23:45:00,
2013-03-06 16:49:00,75.3,24.5,29.81,WSW,238,14.0,15.0,15,0.00,,---,0.00,VWS V14.01,2013-03-06 23:49:00,
2013-03-06 16:50:00,75.2,24.4,29.81,SW,233,4.0,17.0,15,0.00,,---,0.00,VWS V14.01,2013-03-06 23:50:00,
2013-03-06 16:54:00,75.2,24.4,29.81,SW,229,11.0,14.0,15,0.00,,---,0.00,VWS V14.01,2013-03-06 23:54:00,
2013-03-06 16:55:00,75.3,22.9,29.81,SW,219,14.0,21.0,14,0.00,,---,0.00,VWS V14.01,2013-03-06 23:55:00,
2013-03-06 16:59:00,75.0,22.6,29.81,WSW,237,5.0,12.0,14,0.00,,---,0.00,VWS V14.01,2013-03-06 23:59:00,
2013-03-06 17:00:00,75.0,24.3,29.81,WSW,249,9.0,17.0,15,0.00,,---,0.00,VWS V14.01,2013-03-07 00:00:00,
2013-03-06 17:04:00,74.8,24.1,29.81,WSW,248,10.0,14.0,15,0.00,,---,0.00,VWS V14.01,2013-03-07 00:04:00,
2013-03-06 17:05:00,74.8,22.5,29.81,WSW,246,12.0,15.0,14,0.00,,---,0.00,VWS V14.01,2013-03-07 00:05:00,
2013-03-06 17:09:00,74.5,23.9,29.81,SW,236,4.0,14.0,15,0.00,,---,0.00,VWS V14.01,2013-03-07 00:09:00,
2013-03-06 17:10:00,74.5,22.2,29.81,WSW,242,14.0,17.0,14,0.00,,---,0.00,VWS V14.01,2013-03-07 00:10:00,
2013-03-06 17:14:00,74.1,23.5,29.81,WSW,253,10.0,14.0,15,0.00,,---,0.00,VWS V14.01,2013-03-07 00:14:00,
2013-03-06 17:15:00,74.1,23.5,29.81,WSW,244,14.0,20.0,15,0.00,,---,0.00,VWS V14.01,2013-03-07 00:15:00,
2013-03-06 17:19:00,73.6,23.1,29.81,WSW,244,10.0,14.0,15,0.00,,---,0.00,VWS V14.01,2013-03-07 00:19:00,
2013-03-06 17:20:00,73.6,23.1,29.81,WSW,252,9.0,19.0,15,0.00,,---,0.00,VWS V14.01,2013-03-07 00:20:00,
2013-03-06 17:24:00,73.5,24.6,29.81,WSW,252,7.0,13.0,16,0.00,,---,0.00,VWS V14.01,2013-03-07 00:24:00,
2013-03-06 17:25:00,73.6,24.7,29.81,West,265,13.0,14.0,16,0.00,,---,0.00,VWS V14.01,2013-03-07 00:25:00,
2013-03-06 17:29:00,73.4,24.5,29.81,WSW,244,13.0,13.0,16,0.00,,---,0.00,VWS V14.01,2013-03-07 00:29:00,
2013-03-06 17:30:00,73.5,24.6,29.81,WSW,252,13.0,13.0,16,0.00,,---,0.00,VWS V14.01,2013-03-07 00:30:00,
2013-03-06 17:34:00,73.2,22.8,29.81,WSW,240,10.0,12.0,15,0.00,,---,0.00,VWS V14.01,2013-03-07 00:34:00,
2013-03-06 17:35:00,73.3,22.9,29.81,WSW,250,10.0,16.0,15,0.00,,---,0.00,VWS V14.01,2013-03-07 00:35:00,
2013-03-06 17:39:00,73.1,22.7,29.81,West,264,12.0,16.0,15,0.00,,---,0.00,VWS V14.01,2013-03-07 00:39:00,
2013-03-06 17:40:00,73.1,22.7,29.81,West,264,11.0,14.0,15,0.00,,---,0.00,VWS V14.01,2013-03-07 00:40:00,
2013-03-06 17:44:00,72.7,22.4,29.81,West,259,7.0,8.0,15,0.00,,---,0.00,VWS V14.01,2013-03-07 00:44:00,
2013-03-06 17:45:00,72.7,22.4,29.81,WSW,244,7.0,16.0,15,0.00,,---,0.00,VWS V14.01,2013-03-07 00:45:00,
2013-03-06 17:49:00,72.5,23.8,29.81,WSW,254,10.0,11.0,16,0.00,,---,0.00,VWS V14.01,2013-03-07 00:49:00,
2013-03-06 17:50:00,72.5,23.8,29.81,SW,234,6.0,12.0,16,0.00,,---,0.00,VWS V14.01,2013-03-07 00:50:00,
2013-03-06 17:54:00,72.1,23.5,29.81,WSW,251,9.0,13.0,16,0.00,,---,0.00,VWS V14.01,2013-03-07 00:54:00,
2013-03-06 17:55:00,72.1,23.5,29.81,WSW,240,3.0,14.0,16,0.00,,---,0.00,VWS V14.01,2013-03-07 00:55:00,
2013-03-06 17:59:00,71.6,23.1,29.81,WSW,256,6.0,11.0,16,0.00,,---,0.00,VWS V14.01,2013-03-07 00:59:00,
2013-03-06 18:00:00,71.7,23.1,29.81,WSW,253,7.0,13.0,16,0.00,,---,0.00,VWS V14.01,2013-03-07 01:00:00,
2013-03-06 18:04:00,71.2,22.8,29.81,West,274,8.0,12.0,16,0.00,,---,0.00,VWS V14.01,2013-03-07 01:04:00,
2013-03-06 18:05:00,71.2,22.8,29.81,West,269,11.0,14.0,16,0.00,,---,0.00,VWS V14.01,2013-03-07 01:05:00,
2013-03-06 18:09:00,70.7,22.3,29.81,WSW,249,9.0,10.0,16,0.00,,---,0.00,VWS V14.01,2013-03-07 01:09:00,
2013-03-06 18:10:00,70.8,22.4,29.81,WSW,238,4.0,14.0,16,0.00,,---,0.00,VWS V14.01,2013-03-07 01:10:00,
2013-03-06 18:14:00,70.0,21.8,29.81,West,263,3.0,5.0,16,0.00,,---,0.00,VWS V14.01,2013-03-07 01:14:00,
2013-03-06 18:15:00,70.1,21.9,29.81,West,264,3.0,10.0,16,0.00,,---,0.00,VWS V14.01,2013-03-07 01:15:00,
2013-03-06 18:19:00,69.2,21.1,29.81,WSW,252,6.0,6.0,16,0.00,,---,0.00,VWS V14.01,2013-03-07 01:19:00,
2013-03-06 18:20:00,69.2,21.1,29.81,WSW,252,6.0,10.0,16,0.00,,---,0.00,VWS V14.01,2013-03-07 01:20:00,
2013-03-06 18:24:00,68.6,20.6,29.81,WSW,250,2.0,5.0,16,0.00,,---,0.00,VWS V14.01,2013-03-07 01:24:00,
2013-03-06 18:25:00,68.6,20.6,29.81,WSW,250,4.0,10.0,16,0.00,,---,0.00,VWS V14.01,2013-03-07 01:25:00,
2013-03-06 18:29:00,67.9,20.1,29.81,WSW,254,2.0,4.0,16,0.00,,---,0.00,VWS V14.01,2013-03-07 01:29:00,
2013-03-06 18:30:00,68.0,20.2,29.81,WSW,254,3.0,6.0,16,0.00,,---,0.00,VWS V14.01,2013-03-07 01:30:00,
2013-03-06 18:33:00,67.1,20.9,29.82,West,267,4.0,4.0,17,0.00,,---,0.00,VWS V14.01,2013-03-07 01:33:00,
2013-03-06 18:35:00,67.1,20.9,29.82,West,267,2.0,5.0,17,0.00,,---,0.00,VWS V14.01,2013-03-07 01:35:00,
2013-03-06 18:38:00,66.1,20.0,29.82,West,267,1.0,2.0,17,0.00,,---,0.00,VWS V14.01,2013-03-07 01:38:00,
2013-03-06 18:40:00,66.2,20.1,29.82,West,267,1.0,5.0,17,0.00,,---,0.00,VWS V14.01,2013-03-07 01:40:00,
2013-03-06 18:43:00,65.3,22.0,29.82,West,267,0.0,0.0,19,0.00,,---,0.00,VWS V14.01,2013-03-07 01:43:00,
2013-03-06 18:45:00,65.4,22.1,29.82,West,267,0.0,2.0,19,0.00,,---,0.00,VWS V14.01,2013-03-07 01:45:00,
2013-03-06 18:48:00,64.6,24.9,29.82,West,267,1.0,1.0,22,0.00,,---,0.00,VWS V14.01,2013-03-07 01:48:00,
2013-03-06 18:50:00,64.6,24.9,29.82,West,267,1.0,2.0,22,0.00,,---,0.00,VWS V14.01,2013-03-07 01:50:00,
2013-03-06 18:53:00,64.0,26.5,29.82,West,277,1.0,3.0,24,0.00,,---,0.00,VWS V14.01,2013-03-07 01:53:00,
2013-03-06 18:55:00,64.1,26.6,29.82,West,275,1.0,3.0,24,0.00,,---,0.00,VWS V14.01,2013-03-07 01:55:00,
2013-03-06 18:58:00,63.8,26.3,29.83,West,279,3.0,3.0,24,0.00,,---,0.00,VWS V14.01,2013-03-07 01:58:00,
2013-03-06 19:00:00,63.8,26.3,29.83,West,279,1.0,4.0,24,0.00,,---,0.00,VWS V14.01,2013-03-07 02:00:00,
2013-03-06 19:03:00,63.8,27.3,29.83,West,281,0.0,0.0,25,0.00,,---,0.00,VWS V14.01,2013-03-07 02:03:00,
2013-03-06 19:05:00,63.8,27.3,29.83,West,281,0.0,4.0,25,0.00,,---,0.00,VWS V14.01,2013-03-07 02:05:00,
2013-03-06 19:08:00,63.8,27.3,29.83,WNW,290,1.0,3.0,25,0.00,,---,0.00,VWS V14.01,2013-03-07 02:08:00,
2013-03-06 19:10:00,63.8,27.3,29.83,WNW,290,2.0,5.0,25,0.00,,---,0.00,VWS V14.01,2013-03-07 02:10:00,
2013-03-06 19:13:00,63.9,27.4,29.83,WNW,290,0.0,0.0,25,0.00,,---,0.00,VWS V14.01,2013-03-07 02:13:00,
2013-03-06 19:15:00,63.9,27.4,29.83,WNW,290,0.0,5.0,25,0.00,,---,0.00,VWS V14.01,2013-03-07 02:15:00,
2013-03-06 19:18:00,63.5,27.1,29.84,WNW,290,0.0,0.0,25,0.00,,---,0.00,VWS V14.01,2013-03-07 02:18:00,
2013-03-06 19:20:00,63.6,27.2,29.83,WNW,290,0.0,0.0,25,0.00,,---,0.00,VWS V14.01,2013-03-07 02:20:00,
2013-03-06 19:23:00,62.9,26.6,29.84,WNW,290,0.0,0.0,25,0.00,,---,0.00,VWS V14.01,2013-03-07 02:23:00,
2013-03-06 19:25:00,63.0,26.6,29.84,WNW,290,0.0,0.0,25,0.00,,---,0.00,VWS V14.01,2013-03-07 02:25:00,
2013-03-06 19:28:00,62.4,27.1,29.84,WNW,290,0.0,0.0,26,0.00,,---,0.00,VWS V14.01,2013-03-07 02:28:00,
2013-03-06 19:30:00,62.4,27.1,29.84,WNW,290,0.0,3.0,26,0.00,,---,0.00,VWS V14.01,2013-03-07 02:30:00,
2013-03-06 19:33:00,62.0,25.8,29.84,WNW,290,0.0,0.0,25,0.00,,---,0.00,VWS V14.01,2013-03-07 02:33:00,
2013-03-06 19:35:00,62.0,25.8,29.84,WNW,290,0.0,0.0,25,0.00,,---,0.00,VWS V14.01,2013-03-07 02:35:00,
2013-03-06 19:38:00,61.5,26.3,29.84,WNW,290,0.0,0.0,26,0.00,,---,0.00,VWS V14.01,2013-03-07 02:38:00,
2013-03-06 19:40:00,61.5,26.3,29.84,WNW,290,0.0,0.0,26,0.00,,---,0.00,VWS V14.01,2013-03-07 02:40:00,
2013-03-06 19:43:00,60.9,26.7,29.85,WNW,290,0.0,0.0,27,0.00,,---,0.00,VWS V14.01,2013-03-07 02:43:00,
2013-03-06 19:45:00,60.9,26.7,29.85,WNW,290,0.0,0.0,27,0.00,,---,0.00,VWS V14.01,2013-03-07 02:45:00,
2013-03-06 19:48:00,60.3,26.2,29.84,WNW,290,0.0,0.0,27,0.00,,---,0.00,VWS V14.01,2013-03-07 02:48:00,
2013-03-06 19:50:00,60.4,26.3,29.85,WNW,290,0.0,0.0,27,0.00,,---,0.00,VWS V14.01,2013-03-07 02:50:00,
2013-03-06 19:53:00,60.7,26.5,29.85,WNW,290,0.0,0.0,27,0.00,,---,0.00,VWS V14.01,2013-03-07 02:53:00,
2013-03-06 19:55:00,60.7,26.5,29.84,WNW,290,0.0,0.0,27,0.00,,---,0.00,VWS V14.01,2013-03-07 02:55:00,
2013-03-06 19:58:00,61.6,27.3,29.85,WNW,290,0.0,0.0,27,0.00,,---,0.00,VWS V14.01,2013-03-07 02:58:00,
2013-03-06 20:00:00,61.5,27.2,29.85,WNW,290,0.0,0.0,27,0.00,,---,0.00,VWS V14.01,2013-03-07 03:00:00,
2013-03-06 20:03:00,60.9,26.7,29.85,WNW,290,0.0,0.0,27,0.00,,---,0.00,VWS V14.01,2013-03-07 03:03:00,
2013-03-06 20:05:00,60.9,26.7,29.85,WNW,290,0.0,0.0,27,0.00,,---,0.00,VWS V14.01,2013-03-07 03:05:00,
2013-03-06 20:08:00,58.5,25.5,29.85,WNW,290,0.0,0.0,28,0.00,,---,0.00,VWS V14.01,2013-03-07 03:08:00,
2013-03-06 20:10:00,58.7,25.7,29.85,WNW,290,0.0,1.0,28,0.00,,---,0.00,VWS V14.01,2013-03-07 03:10:00,
2013-03-06 20:13:00,56.9,25.0,29.85,WNW,290,0.0,0.0,29,0.00,,---,0.00,VWS V14.01,2013-03-07 03:13:00,
2013-03-06 20:15:00,57.0,25.1,29.85,WNW,290,0.0,0.0,29,0.00,,---,0.00,VWS V14.01,2013-03-07 03:15:00,
2013-03-06 20:18:00,55.2,25.9,29.85,WNW,290,0.0,0.0,32,0.00,,---,0.00,VWS V14.01,2013-03-07 03:18:00,
2013-03-06 20:20:00,55.2,25.1,29.85,WNW,290,0.0,0.0,31,0.00,,---,0.00,VWS V14.01,2013-03-07 03:20:00,
2013-03-06 20:23:00,54.0,25.6,29.85,WNW,291,0.0,0.0,33,0.00,,---,0.00,VWS V14.01,2013-03-07 03:23:00,
2013-03-06 20:25:00,54.1,24.9,29.85,WNW,291,0.0,0.0,32,0.00,,---,0.00,VWS V14.01,2013-03-07 03:25:00,
2013-03-06 20:28:00,53.9,25.5,29.84,WNW,291,0.0,0.0,33,0.00,,---,0.00,VWS V14.01,2013-03-07 03:28:00,
2013-03-06 20:30:00,53.9,25.5,29.85,WNW,291,0.0,0.0,33,0.00,,---,0.00,VWS V14.01,2013-03-07 03:30:00,
2013-03-06 20:33:00,53.2,24.9,29.84,WNW,291,0.0,0.0,33,0.00,,---,0.00,VWS V14.01,2013-03-07 03:33:00,
2013-03-06 20:35:00,53.2,24.9,29.85,WNW,291,0.0,0.0,33,0.00,,---,0.00,VWS V14.01,2013-03-07 03:35:00,
2013-03-06 20:38:00,52.5,25.0,29.85,WNW,292,0.0,0.0,34,0.00,,---,0.00,VWS V14.01,2013-03-07 03:38:00,
2013-03-06 20:40:00,52.6,25.0,29.85,WNW,292,0.0,0.0,34,0.00,,---,0.00,VWS V14.01,2013-03-07 03:40:00,
2013-03-06 20:43:00,52.3,24.8,29.85,WNW,294,0.0,0.0,34,0.00,,---,0.00,VWS V14.01,2013-03-07 03:43:00,
2013-03-06 20:45:00,52.3,24.8,29.85,WNW,294,0.0,0.0,34,0.00,,---,0.00,VWS V14.01,2013-03-07 03:45:00,
2013-03-06 20:48:00,52.2,24.7,29.85,WNW,294,0.0,0.0,34,0.00,,---,0.00,VWS V14.01,2013-03-07 03:48:00,
2013-03-06 20:50:00,52.2,24.7,29.85,WNW,294,0.0,0.0,34,0.00,,---,0.00,VWS V14.01,2013-03-07 03:50:00,
2013-03-06 20:53:00,52.4,24.9,29.85,WNW,295,0.0,0.0,34,0.00,,---,0.00,VWS V14.01,2013-03-07 03:53:00,
2013-03-06 20:55:00,52.3,24.8,29.84,WNW,295,0.0,1.0,34,0.00,,---,0.00,VWS V14.01,2013-03-07 03:55:00,
2013-03-06 20:58:00,52.6,25.0,29.85,WNW,295,0.0,0.0,34,0.00,,---,0.00,VWS V14.01,2013-03-07 03:58:00,
2013-03-06 21:00:00,52.6,25.0,29.84,WNW,295,0.0,0.0,34,0.00,,---,0.00,VWS V14.01,2013-03-07 04:00:00,
2013-03-06 21:03:00,52.6,25.0,29.84,WNW,296,0.0,0.0,34,0.00,,---,0.00,VWS V14.01,2013-03-07 04:03:00,
2013-03-06 21:05:00,52.6,25.0,29.84,WNW,296,0.0,0.0,34,0.00,,---,0.00,VWS V14.01,2013-03-07 04:05:00,
2013-03-06 21:08:00,52.3,24.8,29.85,WNW,296,0.0,0.0,34,0.00,,---,0.00,VWS V14.01,2013-03-07 04:08:00,
2013-03-06 21:10:00,52.3,24.8,29.85,WNW,296,0.0,0.0,34,0.00,,---,0.00,VWS V14.01,2013-03-07 04:10:00,
2013-03-06 21:13:00,51.8,25.0,29.84,WNW,296,0.0,0.0,35,0.00,,---,0.00,VWS V14.01,2013-03-07 04:13:00,
2013-03-06 21:15:00,51.8,25.0,29.85,WNW,295,0.0,0.0,35,0.00,,---,0.00,VWS V14.01,2013-03-07 04:15:00,
2013-03-06 21:18:00,51.6,25.5,29.85,WNW,296,0.0,0.0,36,0.00,,---,0.00,VWS V14.01,2013-03-07 04:18:00,
2013-03-06 21:20:00,51.6,25.5,29.85,WNW,296,0.0,0.0,36,0.00,,---,0.00,VWS V14.01,2013-03-07 04:20:00,
2013-03-06 21:23:00,51.5,25.5,29.85,WNW,295,0.0,0.0,36,0.00,,---,0.00,VWS V14.01,2013-03-07 04:23:00,
2013-03-06 21:25:00,51.5,25.5,29.85,WNW,296,0.0,0.0,36,0.00,,---,0.00,VWS V14.01,2013-03-07 04:25:00,
2013-03-06 21:28:00,50.8,25.5,29.85,WNW,295,0.0,0.0,37,0.00,,---,0.00,VWS V14.01,2013-03-07 04:28:00,
2013-03-06 21:30:00,50.8,25.5,29.85,WNW,296,0.0,0.0,37,0.00,,---,0.00,VWS V14.01,2013-03-07 04:30:00,
2013-03-06 21:33:00,50.3,25.0,29.85,WNW,296,0.0,0.0,37,0.00,,---,0.00,VWS V14.01,2013-03-07 04:33:00,
2013-03-06 21:35:00,50.3,25.0,29.84,WNW,295,0.0,0.0,37,0.00,,---,0.00,VWS V14.01,2013-03-07 04:35:00,
2013-03-06 21:38:00,49.6,25.0,29.85,NW,310,0.0,0.0,38,0.00,,---,0.00,VWS V14.01,2013-03-07 04:38:00,
2013-03-06 21:40:00,49.7,25.1,29.85,NW,307,0.0,0.0,38,0.00,,---,0.00,VWS V14.01,2013-03-07 04:40:00,
2013-03-06 21:43:00,47.9,24.8,29.85,North,9,0.0,1.0,40,0.00,,---,0.00,VWS V14.01,2013-03-07 04:43:00,
2013-03-06 21:45:00,47.9,24.8,29.85,North,9,1.0,2.0,40,0.00,,---,0.00,VWS V14.01,2013-03-07 04:45:00,
2013-03-06 21:48:00,47.0,24.5,29.85,North,5,0.0,0.0,41,0.00,,---,0.00,VWS V14.01,2013-03-07 04:48:00,
2013-03-06 21:50:00,47.0,24.5,29.85,North,5,0.0,2.0,41,0.00,,---,0.00,VWS V14.01,2013-03-07 04:50:00,
2013-03-06 21:53:00,46.5,24.1,29.85,North,360,0.0,0.0,41,0.00,,---,0.00,VWS V14.01,2013-03-07 04:53:00,
2013-03-06 21:55:00,46.5,24.1,29.85,North,360,0.0,0.0,41,0.00,,---,0.00,VWS V14.01,2013-03-07 04:55:00,
2013-03-06 21:58:00,46.4,25.1,29.85,North,5,0.0,0.0,43,0.00,,---,0.00,VWS V14.01,2013-03-07 04:58:00,
2013-03-06 22:00:00,46.3,25.0,29.85,North,360,0.0,0.0,43,0.00,,---,0.00,VWS V14.01,2013-03-07 05:00:00,
2013-03-06 22:05:00,46.4,25.1,29.86,ENE,60,0.0,2.0,43,0.00,,---,0.00,VWS V14.01,2013-03-07 05:05:00,
2013-03-06 22:10:00,47.3,25.4,29.86,ENE,78,0.0,0.0,42,0.00,,---,0.00,VWS V14.01,2013-03-07 05:10:00,
2013-03-06 22:15:00,49.1,25.8,29.86,East,80,0.0,0.0,40,0.00,,---,0.00,VWS V14.01,2013-03-07 05:15:00,
2013-03-06 22:20:00,50.4,25.8,29.86,East,80,0.0,0.0,38,0.00,,---,0.00,VWS V14.01,2013-03-07 05:20:00,
2013-03-06 22:25:00,50.9,25.6,29.86,East,81,0.0,1.0,37,0.00,,---,0.00,VWS V14.01,2013-03-07 05:25:00,
2013-03-06 22:30:00,50.4,25.8,29.86,ESE,107,0.0,2.0,38,0.00,,---,0.00,VWS V14.01,2013-03-07 05:30:00,
2013-03-06 22:35:00,50.5,25.9,29.86,ESE,107,0.0,0.0,38,0.00,,---,0.00,VWS V14.01,2013-03-07 05:35:00,
2013-03-06 22:40:00,50.2,25.6,29.86,ESE,107,0.0,0.0,38,0.00,,---,0.00,VWS V14.01,2013-03-07 05:40:00,
2013-03-06 22:45:00,49.9,26.0,29.86,ESE,107,0.0,0.0,39,0.00,,---,0.00,VWS V14.01,2013-03-07 05:45:00,
2013-03-06 22:50:00,50.6,26.0,29.86,ESE,109,0.0,1.0,38,0.00,,---,0.00,VWS V14.01,2013-03-07 05:50:00,
2013-03-06 22:55:00,51.1,26.4,29.86,ESE,109,0.0,0.0,38,0.00,,---,0.00,VWS V14.01,2013-03-07 05:55:00,
2013-03-06 23:00:00,51.6,26.2,29.86,ESE,109,0.0,0.0,37,0.00,,---,0.00,VWS V14.01,2013-03-07 06:00:00,
2013-03-06 23:05:00,51.6,26.2,29.86,ESE,109,0.0,0.0,37,0.00,,---,0.00,VWS V14.01,2013-03-07 06:05:00,
2013-03-06 23:10:00,51.5,26.1,29.86,ESE,109,0.0,0.0,37,0.00,,---,0.00,VWS V14.01,2013-03-07 06:10:00,
2013-03-06 23:15:00,51.0,26.3,29.86,ESE,109,0.0,0.0,38,0.00,,---,0.00,VWS V14.01,2013-03-07 06:15:00,
2013-03-06 23:20:00,50.1,26.1,29.86,ESE,109,0.0,0.0,39,0.00,,---,0.00,VWS V14.01,2013-03-07 06:20:00,
2013-03-06 23:25:00,49.7,25.8,29.86,ESE,109,0.0,0.0,39,0.00,,---,0.00,VWS V14.01,2013-03-07 06:25:00,
2013-03-06 23:30:00,49.7,26.4,29.86,ESE,109,0.0,0.0,40,0.00,,---,0.00,VWS V14.01,2013-03-07 06:30:00,
2013-03-06 23:35:00,49.5,26.2,29.86,ESE,109,0.0,0.0,40,0.00,,---,0.00,VWS V14.01,2013-03-07 06:35:00,
2013-03-06 23:40:00,48.9,26.2,29.86,ESE,109,0.0,0.0,41,0.00,,---,0.00,VWS V14.01,2013-03-07 06:40:00,
2013-03-06 23:45:00,48.7,26.6,29.86,ESE,109,0.0,0.0,42,0.00,,---,0.00,VWS V14.01,2013-03-07 06:45:00,
2013-03-06 23:50:00,48.5,26.5,29.86,ESE,109,0.0,0.0,42,0.00,,---,0.00,VWS V14.01,2013-03-07 06:50:00,
2013-03-06 23:55:00,48.2,26.2,29.86,ESE,109,1.0,3.0,42,0.00,,---,0.00,VWS V14.01,2013-03-07 06:55:00,